Current weather by "City, St" or "zip code"  
 

Current Conditions: Mattoon / Charleston, Coles County Memorial Airport, IL

Fair


52.0 F

Last Updated on Sep 18 2020, 1:53 am CDT
Humidity: 83%
Wind Speed: N 4.6 mph
Barometer 30.15 in
Dewpoint: 46.9 F
Visibility: 10.00 mi
Precip: --
Heat Index: NA
Wind Chill: 51 F
Current conditions at:

Mattoon / Charleston, Coles County Memorial Airport, IL (KMTO)

Lat: 39.47806 Lon: 88.27917

Local Radar Image active severe weather and emergency alerts image image weather storm and storm spotter reports image weather observation monitoring service image
Local
Radar
Active
Alerts
Storm Reports Obs
Monitoring

Sign-up For Email & Text Message Weather Alert Notification Services



Advertise Here

Observation History for Mattoon / Charleston, Coles County Memorial Airport, IL


Time Wind
(mph)
Vis
(mi)
Weather Precip (in) Temperature (F) Relative
Humidity
Wind
Chill
(F)
Heat
Index
(F)
Pressure
Air Dwpt altimeter
(in)
sea level
(mb)
Rmks
1:53 am CDT N 4.6 10.00 Fair -- 52.0 46.9 83% 51 NA 30.15 1020.5
12:53 am CDT N 5.8 10.00 Fair -- 53.0 46.9 80% 51 NA 30.14 1020.4
11:53 pm CDT N 4.6 10.00 Fair -- 55.0 48.0 77% 54 NA 30.14 1020.3
10:53 pm CDT NE 6.9 10.00 Mostly Cloudy -- 58.0 48.9 72% 57 NA 30.13 1020.0
9:53 pm CDT N 11.5 10.00 Fair -- 60.0 51.1 72% 58 NA 30.12 1019.6
8:53 pm CDT N 15.0 G 24.2 10.00 Fair -- 63.0 53.1 70% 61 NA 30.09 1018.8
7:53 pm CDT N 12.7 10.00 A Few Clouds -- 67.0 57.0 71% NA NA 30.06 1017.7
6:53 pm CDT N 10.4 7.00 A Few Clouds -- 71.0 57.9 63% NA NA 30.04 1016.8
5:53 pm CDT N 12.7 7.00 A Few Clouds -- 74.0 60.1 62% NA NA 30.03 1016.5
4:53 pm CDT N 9.2 8.00 Overcast -- 74.0 61.0 64% NA NA 30.03 1016.3
3:53 pm CDT N 12.7 9.00 Mostly Cloudy -- 75.0 61.0 62% NA NA 30.03 1016.5
2:53 pm CDT N 16.1 G 24.2 10.00 Mostly Cloudy -- 74.0 61.0 64% NA NA 30.03 1016.5
1:53 pm CDT N 15.0 G 25.3 10.00 Mostly Cloudy -- 76.0 63.0 64% NA NA 30.04 1016.8
12:53 pm CDT N 13.8 G 24.2 10.00 Mostly Cloudy -- 75.0 64.0 69% NA NA 30.05 1017.2
11:53 am CDT N 13.8 10.00 Overcast -- 71.0 63.0 76% NA NA 30.06 1017.6
10:53 am CDT N 15.0 10.00 Overcast -- 72.0 64.0 76% NA NA 30.06 1017.4
9:53 am CDT N 11.5 10.00 Mostly Cloudy -- 71.0 64.0 79% NA NA 30.04 1017.0
7:53 am CDT N 6.9 10.00 Fair -- 60.0 57.0 90% 59 NA 30.02 1016.4
6:53 am CDT NW 3.5 10.00 Fair -- 56.0 54.0 93% NA NA 30.01 1016.1
5:53 am CDT NW 4.6 10.00 Fair -- 57.0 54.0 90% 57 NA 30.00 1015.7
4:53 am CDT W 4.6 10.00 Fair -- 60.0 55.0 84% 60 NA 30.00 1015.4
3:53 am CDT N 0.0 10.00 Fair -- 57.0 55.0 93% NA NA 30.00 1015.5
2:53 am CDT W 3.5 10.00 Fair -- 61.0 54.0 78% NA NA 30.00 1015.6

Regional Weather Observation


Mattoon / Charleston, Coles County Memorial Airport, IL (KMTO)

Fair
52.0 F

Effingham, Effingham County Memorial Airport, IL (K1H2)

Fair
56.0 F

University of Illinois - Willard, IL (KCMI)

Fair
55.0 F

Edgar County Airport, IL (KPRG)

Fair
55.0 F

Rantoul National Aviation Center Airport, IL (KTIP)

Fair
53.0 F

Taylorville, Taylorville Municipal Airport, IL (KTAZ)

Fair
49.0 F